Location: De Greiden
(52.9496°N, 5.9137°E)
Time: 00:11:46
(UTC+00:00)

MOS 1 Rocket - Pass Details

Date: 24 January 2021
Orbit: 614 x 830 km, 97.4° (Epoch: 26 February)

Event Time Altitude Azimuth Distance (km) Brightness Sun altitude
Exits shadow 16:59:41 - 24° (NNE) 2,818 6.0 -8.0°
Reaches altitude 10° 17:02:03 10° 39° (NE) 1,994 5.1 -8.4°
Maximum altitude 17:05:26 22° 91° (E) 1,347 4.2 -8.8°
Drops below altitude 10° 17:08:48 10° 143° (SE) 1,978 5.5 -9.3°
Sets 17:11:23 0° 159° (SSE) 2,889 6.5 -9.7°
